Weather in Koktyul

Russia / Tyumen Oblast     56°44′55″N   66°33′18″E
temp.,
°C
wind,
m/s
gust,
m/s
humid.,
%
clouds,
%
prec.,
mm/h
press.,
hPa
HPBL,
m
20 june, sun
sun2023:00+13w4988100 0.1 1009280
02:00+13sw4896100 0.2 1007305
05:00+13sw4998100 0.2 1005328
08:00+15wsw61196100 0.8 1002788
11:00+18nw913630 1.2 10021511
14:00+19nw1015358 0.0 10032735
17:00+15nnw10194887 0.0 10062193
20:00+13nw101849100 0.0 10061788
21 june, mon
mon2123:00+9nw101785100 0.4 10081344
02:00+9nnw101891100 1.1 10081134
05:00+9nnw101790100 1.6 10101016
08:00+9nnw81587100 0.2 1013994
11:00+14n7107263 0.2 10161117
14:00+18nnw885639 0.6 10171493
17:00+19nnw675299 0.7 10181798
20:00+15nnw4768100 0.0 1018367
22 june, tue
tue2223:00+12nnw3584100 0.4 1019103
02:00+10nnw2390100 0.3 101839
05:00+11nw2389100 0.6 101886
08:00+14n347297 0.1 1018572
11:00+16nnw335475 0.1 10171318
14:00+18n2350100 0.0 10171640
17:00+17nne1156100 0.0 1017445
20:00+15w226897 0.0 101733
23 june, wed
wed2323:00+11nne228169 0.3 101731
02:00+9e2289100 0.0 101824
05:00+8nne35940 0.0 1019116
08:00+13nne46650 0.0 1019587
11:00+17nne574191 0.0 10191870
14:00+18n683785 0.0 10182509
17:00+19n673825 0.0 10192314
20:00+15nne37565 0.0 1019213
24 june, thu
thu2423:00+9ne22695 0.0 102020
02:00+8nne226985 0.0 102010
05:00+8nne23736 0.0 102259
08:00+14nne355620 0.0 1021542
11:00+18n4540100 0.0 10201951
14:00+20n453610 0.0 10202351
17:00+21nnw353533 0.0 10192419
20:00+18wnw11555 0.0 101811